Location: *
(44.9308°N, 123.0197°W)
Time: 04:11:53
(UTC+00:00)

Cosmos 2151 Rocket - Pass Details

Date: 09 April 2020
Orbit: 618 x 642 km, 82.5° (Epoch: 24 May)

Event Time Altitude Azimuth Distance (km) Brightness Sun altitude
Rises 12:17:57 0° 344° (NNW) 2,905 7.2 -14.0°
Reaches altitude 10° 12:20:15 10° 338° (NNW) 1,993 6.2 -13.7°
Maximum altitude 12:24:25 43° 268° (W) 876 3.9 -13.0°
Drops below altitude 10° 12:28:34 10° 197° (SSW) 1,979 5.8 -12.3°
Enters shadow 12:30:25 - 191° (S) 2,705 6.5 -12.0°
